DELTA 1 DEB, 14472

Orbit data source: Space-Track

DELTA 1 DEB, 14472 is space debris in SSO originally from a launch on Thu, 29 Jul 1976 UTC launched from the Air Force Western Test Range (AFWTR). Debris objects in space refer to the collection of defunct objects orbiting the Earth. Examples of debris include non-operational satellites, rocket bodies, and fragments generated from explosions, collisions, or faulty payload assembly.

Loading next visibility...
Identifier
14472, 1976-077EP
Orbit
SSO
Country
Flag of USUS
Related business
Manufacturer
Unknown
Mission
Spacecraft
Bus & Motor
Unknown
Mass
Unknown
Launch date (UTC)
1976-07-29 (50 years ago)
Launch vehicle
Unknown
Launch site
Air Force Western Test Range (AFWTR)
Object type
Payload
Rocket body
Debris
Shape & HBR
Unknown shape, 0.1 m
Radar Cross Section
Medium (>0.1 m² and <1 m²)

Expand to show TLE details & history
Last TLE update: 3 days ago

TLE from 3 days ago
0 DELTA 1 DEB
1 14472U 76077EP  26171.44696788 -.00000005  00000-0  40252-3 0  9996
2 14472 102.8315 158.3225 0154838 228.2305 287.0514 12.16367306933688
Epoch: 2026-06-20T10:43Z
TLE epoch observation values (Epoch: 2026-06-20T10:43:38.024Z)
Latitude
25.74718°
Longitude
-84.97142°
Altitude
1,576.644 km
Speed
7.097 km/s
True Right ascension
22h 58m 23s
True Declination
25° 37' 36"
Sunlit
Object was in daylight at epoch
Visualization orbit readout
Latitude
Unknown
Longitude
Unknown
Altitude
Unknown
Speed
Unknown
Apparent Right ascension
Unknown
Apparent Declination
Unknown
Sunlit
N/A
Visualization observer readout
Local Sidereal Time
13:17:40
Azimuth
Unknown
Elevation
Unknown
Doppler factor
Unknown
Orbital elements
Apogee altitude
1,729.684 km
Perigee altitude
1,482.433 km
Semi-major axis
7,984.196 km
Eccentricity
0.01548
Inclination
102.8315°
RAAN
158.3225°
Arg. of periapsis
228.2305°
True anomaly
285.34565°
Mean anomaly
287.0514°
Eccentric anomaly
286.19947°
Mean motion
3.04226 °/min
Orbital period
118.33 mins
BSTAR
0.00040252
Loading maneuver chart data...
Computing Atmospheric mass density...
Loading historical data...
Loading historical data...
Loading historical data...
Loading historical data...
Loading historical data...
Loading historical data...
Loading historical data...

Documentation

Showing up to 5 results
|